Content
SEND FEEDBACK

Daily
Averages
Monthly
Summary
United States of America

CARNELIAN BAY, CALIFORNIA


Home > North America > United States > California
Elevation: 6258 feet     Latitude: 39 19N     Longitude: 120 14W

WEATHER
 
SELECT A DAY
Number of Records: 282,401;   Date Range: 1/1/95 - 8/12/14
 
SHARE

PRINT THIS DATA

[ ← Previous Day ]
WEATHER ALMANAC - FEBRUARY 12, 2014
[ Next Day → ]
[ °C ]   °F
Weather ElementAverageHighLow
Temperature37.3 °F55.4 °F (11:45 am)28.4 °F (6:50 am)
Dewpoint20.3 °F24.8 °F (1:15 am)10.4 °F (8:55 am)
Humidity53.8 %80 % (1:35 am)21 % (12:50 pm)
Barometer30.23 in30.26 in (7:55 am)30.21 in (1:45 pm)
Wind Speed2.9 mph19.6 mph (1:45 pm)
Wind Gust25.3 mph (1:45 pm)
Weather ElementAverage
Visibility10 mi
Wind DirectionENE (70.8 °)

Weather ElementTotal
Precipitation---
Heating Degree Days23.1 (Base 65)
Averaged from 49 records on February 12, 2014
WEATHER CONDITIONS BREAKOUT
WIND DIRECTION BREAKOUT
WEATHER BY HOUR - FEBRUARY 12, 2014
[ °C ]   °F
Local TimeTemperatureDewpointHumidityBarometerVisibilityWind DirectionWind SpeedGust SpeedPrecipitationEventsConditions
12:35 AM32.0 °F21.2 °F64 %30.24 in10.0 miCalmClear
12:55 AM32.0 °F23.0 °F69 %30.24 in10.0 miSE (140°)3.5 mphClear
1:15 AM32.0 °F24.8 °F75 %30.23 in10.0 miCalmClear
1:35 AM30.2 °F24.8 °F80 %30.23 in10.0 miCalmClear
1:55 AM32.0 °F24.8 °F75 %30.23 in10.0 miNE (40°)4.6 mphClear
2:15 AM32.0 °F21.2 °F64 %30.25 in10.0 miCalmClear
2:35 AM32.0 °F23.0 °F69 %30.25 in10.0 miCalmClear
2:55 AM32.0 °F21.2 °F64 %30.25 in10.0 miCalmClear
3:15 AM32.0 °F21.2 °F64 %30.25 in10.0 miCalmClear
3:35 AM33.8 °F15.8 °F48 %30.24 in10.0 miCalmClear
3:55 AM30.2 °F23.0 °F75 %30.23 in10.0 miCalmClear
4:15 AM32.0 °F21.2 °F64 %30.24 in10.0 miCalmClear
4:35 AM30.2 °F21.2 °F69 %30.23 in10.0 miCalmClear
4:55 AM32.0 °F19.4 °F60 %30.25 in10.0 miCalmClear
5:15 AM32.0 °F17.6 °F55 %30.23 in10.0 miSW (230°)3.5 mphScattered Clouds
5:35 AM32.0 °F15.8 °F51 %30.23 in10.0 miWNW (300°)5.8 mphClear
6:50 AM28.4 °F19.4 °F69 %30.24 in10.0 miCalmMostly Cloudy
7:55 AM30.2 °F17.6 °F60 %30.26 in10.0 miCalmScattered Clouds
8:55 AM44.6 °F10.4 °F25 %30.26 in10.0 miCalmScattered Clouds
9:45 AM51.8 °F14.0 °F22 %30.25 in10.0 miSSW (200°)12.7 mph17.3 mphScattered Clouds
10:50 AM53.6 °F19.4 °F26 %30.24 in10.0 miSouth (180°)9.2 mphScattered Clouds
11:45 AM55.4 °F21.2 °F26 %30.24 in10.0 miSW (230°)11.5 mph19.6 mphScattered Clouds
12:50 PM55.4 °F15.8 °F21 %30.23 in10.0 miNW (310°)8.1 mph17.3 mphMostly Cloudy
1:45 PM53.6 °F17.6 °F24 %30.21 in10.0 miWest (280°)19.6 mph25.3 mphMostly Cloudy
2:50 PM53.6 °F17.6 °F24 %30.23 in10.0 miWest (270°)13.8 mph21.9 mphMostly Cloudy
3:55 PM48.2 °F15.8 °F27 %30.23 in10.0 miCalmMostly Cloudy
4:45 PM46.4 °F17.6 °F32 %30.23 in10.0 miNNE (30°)3.5 mphMostly Cloudy
4:55 PM44.6 °F19.4 °F37 %30.23 in10.0 miENE (60°)4.6 mphClear
5:15 PM46.4 °F15.8 °F29 %30.23 in10.0 miCalmClear
5:35 PM44.6 °F17.6 °F34 %30.23 in10.0 miNNE (20°)4.6 mphClear
5:55 PM41.0 °F19.4 °F42 %30.22 in10.0 miSSE (160°)5.8 mphClear
6:15 PM37.4 °F21.2 °F52 %30.22 in10.0 miSSE (150°)5.8 mphClear
6:35 PM39.2 °F21.2 °F49 %30.23 in10.0 miCalmClear
6:55 PM39.2 °F21.2 °F49 %30.23 in10.0 miCalmClear
7:15 PM35.6 °F21.2 °F56 %30.22 in10.0 miCalmClear
7:35 PM37.4 °F21.2 °F52 %30.22 in10.0 miCalmClear
7:55 PM37.4 °F21.2 °F52 %30.22 in10.0 miNorth (10°)3.5 mphClear
8:15 PM33.8 °F23.0 °F65 %30.22 in10.0 miCalmClear
8:35 PM33.8 °F21.2 °F60 %30.23 in10.0 miENE (70°)3.5 mphClear
8:55 PM32.0 °F23.0 °F69 %30.23 in10.0 miSouth (170°)3.5 mphClear
9:15 PM35.6 °F21.2 °F56 %30.23 in10.0 miCalmClear
9:35 PM32.0 °F23.0 °F69 %30.24 in10.0 miCalmScattered Clouds
9:55 PM32.0 °F23.0 °F69 %30.24 in10.0 miSouth (170°)4.6 mphScattered Clouds
10:15 PM32.0 °F23.0 °F69 %30.23 in10.0 miSW (220°)3.5 mphScattered Clouds
10:35 PM32.0 °F23.0 °F69 %30.25 in10.0 miCalmScattered Clouds
10:55 PM33.8 °F21.2 °F60 %30.24 in10.0 miSW (230°)4.6 mphScattered Clouds
11:15 PM32.0 °F23.0 °F69 %30.23 in10.0 miCalmClear
11:35 PM32.0 °F23.0 °F69 %30.23 in10.0 miCalmClear
11:55 PM33.8 °F21.2 °F60 %30.22 in10.0 miCalmClear
Hourly data recorded from KTRK, located miles away from Carnelian Bay, California







STORIES FROM OUR PARTNERS